Sanford, ME

7:07 PM EDT on September 19, 2019 (GMT -0400)
Sanford Regional

Weather History for KSFM - August, 2019

Change the Weather History Date:

Sunday, August 25, 2019

  Actual Average Record
Temperature  
Mean Temperature 58 °F -  
Max Temperature 69 °F 75 °F 95 °F (2007)
Min Temperature 46 °F 51 °F 28 °F (1999)
Degree Days  
Heating Degree Days 8    
Growing Degree Days 8 (Base 50)    
Moisture  
Dew Point 52 °F    
Average Humidity 83    
Maximum Humidity 100    
Minimum Humidity 51    
Precipitation  
Precipitation 0.00 in - - ()
Sea Level Pressure  
Sea Level Pressure 30.35 in    
Wind  
Wind Speed 4 mph (ENE)    
Max Wind Speed 14 mph    
Max Gust Speed 17 mph    
Visibility 8 miles    
Events Rain    
Averages and records for this station are not official NWS values.
T = Trace of Precipitation, MM = Missing Value Source: NWS Daily Summary

Daily Weather History Graph

Daily Weather History Graph

Search for Another Location

Airport or City:

Astronomy

Aug. 25, 2019 Rise Set
Actual Time 5:58 AM EDT 7:30 PM EDT
Civil Twilight 5:28 AM EDT 8:00 PM EDT
Nautical Twilight 4:52 AM EDT 8:36 PM EDT
Astronomical Twilight 4:13 AM EDT 9:14 PM EDT
Moon 12:26 AM EDT (8/25) 3:53 PM EDT (8/25)
Length of Visible Light 14h 31m
Length of Day
13h 31m
Waning Crescent, 29% of the Moon is Illuminated
Aug 25
Waning Crescent
Aug 30
New
Sep 5
First Quarter
Sep 14
Full
Sep 21
Last Quarter

Hourly Weather History & Observations

Time (EDT) Temp. Dew Point Humidity Pressure Visibility Wind Dir Wind Speed Gust Speed Precip Events Conditions
12:56 AM 59.0 °F 57.0 °F 93% 30.34 in 10.0 mi Calm Calm - N/A   Overcast
1:56 AM 60.1 °F 57.9 °F 93% 30.34 in 10.0 mi ENE 4.6 mph - N/A   Overcast
2:56 AM 59.0 °F 57.0 °F 93% 30.33 in 10.0 mi ENE 3.5 mph - N/A   Scattered Clouds
3:54 AM 53.6 °F 51.8 °F 94% 30.33 in 1.5 mi Calm Calm - N/A   Clear
3:56 AM 52.0 °F 52.0 °F 100% 30.34 in 1.5 mi Calm Calm - N/A Rain Light Rain
4:06 AM 53.6 °F 51.8 °F 94% 30.33 in 2.0 mi Calm Calm - N/A Rain Light Rain
4:09 AM 51.8 °F 51.8 °F 100% 30.33 in 1.0 mi Calm Calm - N/A Rain Light Rain
4:17 AM 53.6 °F 51.8 °F 94% 30.33 in 2.0 mi Calm Calm - N/A Rain Light Rain
4:24 AM 51.8 °F 51.8 °F 100% 30.33 in 10.0 mi Calm Calm - N/A   Clear
4:56 AM 54.0 °F 54.0 °F 100% 30.35 in 10.0 mi NNE 3.5 mph - N/A   Clear
5:56 AM 55.9 °F 54.0 °F 93% 30.35 in 10.0 mi NNE 5.8 mph - N/A   Mostly Cloudy
6:56 AM 55.9 °F 54.0 °F 93% 30.38 in 10.0 mi NNE 6.9 mph - N/A   Clear
7:56 AM 57.9 °F 54.0 °F 87% 30.39 in 10.0 mi NE 10.4 mph - N/A   Clear
8:56 AM 62.1 °F 52.0 °F 70% 30.39 in 10.0 mi East 11.5 mph - N/A   Partly Cloudy
9:56 AM 64.0 °F 52.0 °F 65% 30.40 in 10.0 mi ENE 13.8 mph - N/A   Scattered Clouds
10:56 AM 64.9 °F 52.0 °F 63% 30.40 in 10.0 mi NE 8.1 mph - N/A   Scattered Clouds
11:56 AM 66.9 °F 51.1 °F 57% 30.39 in 10.0 mi ENE 10.4 mph 17.3 mph N/A   Partly Cloudy
12:56 PM 69.1 °F 50.0 °F 51% 30.38 in 10.0 mi NE 11.5 mph - N/A   Clear
1:56 PM 69.1 °F 50.0 °F 51% 30.37 in 10.0 mi ESE 9.2 mph - N/A   Clear
2:56 PM 69.1 °F 54.0 °F 58% 30.36 in 10.0 mi East 10.4 mph 17.3 mph N/A   Clear
3:56 PM 66.0 °F 53.1 °F 63% 30.34 in 10.0 mi SE 11.5 mph - N/A   Clear
4:56 PM 64.0 °F 53.1 °F 67% 30.34 in 10.0 mi ESE 10.4 mph - N/A   Clear
5:56 PM 62.1 °F 53.1 °F 72% 30.34 in 10.0 mi Variable 4.6 mph - N/A   Clear
6:56 PM 60.1 °F 53.1 °F 78% 30.34 in 10.0 mi SSE 3.5 mph - N/A   Clear
7:56 PM 54.0 °F 52.0 °F 93% 30.34 in 10.0 mi Calm Calm - N/A   Clear
8:56 PM 51.1 °F 50.0 °F 96% 30.36 in 10.0 mi Calm Calm - N/A   Clear
9:56 PM 46.9 °F 46.0 °F 97% 30.35 in 10.0 mi West 3.5 mph - N/A   Clear
10:56 PM 46.9 °F 46.0 °F 97% 30.34 in 9.0 mi West 3.5 mph - N/A   Clear
11:56 PM 48.0 °F 46.9 °F 96% 30.32 in 10.0 mi Calm Calm - N/A   Clear